EW3861 Weather Reports


time (UTC)temp
C
wind
direction
speed
KPH
gust
KPH
rain 1hr
cm
rain 24hr
cm
rain mn
cm
humidity
%
barometer
mb
20260905180044 20 355 0.0 0.0 0.00 0.00 0.00 78 1009.2
20260905174543 20 152 0.0 0.0 0.00 0.00 0.00 79 1008.9
20260905173042 20 34 0.0 0.0 0.00 0.00 0.00 81 1008.9
20260905171542 20 61 0.0 0.0 0.00 0.00 0.00 79 1008.9
20260905170041 20 34 0.0 0.0 0.00 0.00 0.00 79 1008.9
20260905164539 21 321 0.0 0.0 0.00 0.00 0.00 78 1008.8
20260905163039 20 288 0.0 0.0 0.00 0.00 0.00 78 1008.6
20260905161551 20 54 0.0 0.0 0.00 0.00 0.00 80 1008.6
20260905160041 20 18 0.0 0.0 0.00 0.00 0.00 79 1008.6
20260905154540 20 325 0.0 0.0 0.00 0.00 0.00 79 1008.5
20260905153035 21 171 0.0 0.0 0.00 0.00 0.00 79 1008.4
20260905151534 20 86 0.0 0.0 0.00 0.00 0.00 79 1008.3
20260905150034 20 63 0.0 0.0 0.00 0.00 0.00 79 1008.3
20260905144529 20 59 0.0 0.0 0.00 0.00 0.00 82 1008.3
20260905143029 19 68 0.0 0.0 0.00 0.00 0.00 84 1008.2
20260905141530 19 103 0.0 0.0 0.00 0.00 0.00 86 1008.3
20260905140021 18 115 0.0 0.0 0.00 0.00 0.00 88 1008.2
20260905134520 18 105 0.0 0.0 0.00 0.00 0.00 89 1008.5
20260905133015 17 169 0.0 0.0 0.00 0.00 0.00 93 1008.5
20260905131514 17 101 0.0 0.0 0.00 0.00 0.00 96 1008.3
20260905130009 16 96 0.0 0.0 0.00 0.00 0.00 97 1008.1
20260905124507 16 98 0.0 0.0 0.00 0.00 0.00 97 1008.1
20260905123014 16 101 0.0 0.0 0.00 0.00 0.00 97 1007.9
20260905121504 15 73 0.0 0.0 0.00 0.00 0.00 97 1007.9
20260905120005 15 73 0.0 0.0 0.00 0.00 0.00 97 1007.8
20260905114503 14 73 0.0 0.0 0.00 0.00 0.00 96 1007.6
20260905113003 14 73 0.0 0.0 0.00 0.00 0.00 96 1007.6
20260905111501 13 73 0.0 0.0 0.00 0.00 0.00 96 1007.5
20260905110001 13 73 0.0 0.0 0.00 0.00 0.00 95 1007.3
20260905104614 13 73 0.0 0.0 0.00 0.00 0.00 95 1007.2
20260905103100 13 73 0.0 0.0 0.00 0.00 0.00 95 1007.2
20260905101602 13 73 0.0 0.0 0.00 0.00 0.00 95 1007.1
20260905100101 13 73 0.0 0.0 0.00 0.00 0.00 95 1007.2
20260905094557 13 73 0.0 0.0 0.00 0.00 0.00 95 1007.1
20260905093057 14 73 0.0 0.0 0.00 0.00 0.00 95 1007.1
20260905091619 14 73 0.0 0.0 0.00 0.00 0.00 95 1007.1
20260905090054 14 73 0.0 0.0 0.00 0.00 0.00 95 1007.1
20260905084610 14 73 0.0 0.0 0.00 0.00 0.00 95 1007.0
20260905083052 14 73 0.0 0.0 0.00 0.00 0.00 95 1006.9
20260905081552 14 73 0.0 0.0 0.00 0.00 0.00 94 1006.9
20260905080052 14 73 0.0 0.0 0.00 0.00 0.00 94 1007.0
20260905074558 14 73 0.0 0.0 0.00 0.00 0.00 94 1007.0
20260905073049 14 73 0.0 0.0 0.00 0.00 0.00 94 1007.0
20260905071549 14 73 0.0 0.0 0.00 0.00 0.00 94 1007.0
20260905070105 15 73 0.0 0.0 0.00 0.00 0.00 93 1007.1
20260905064547 15 73 0.0 0.0 0.00 0.00 0.00 93 1007.4
20260905063044 15 73 0.0 0.0 0.00 0.00 0.00 93 1007.6
20260905061542 15 73 0.0 0.0 0.00 0.00 0.00 93 1007.5
20260905060041 15 73 0.0 0.0 0.00 0.00 0.00 93 1007.7
20260905054549 15 73 0.0 0.0 0.00 0.00 0.00 92 1007.7
20260905053043 15 73 0.0 0.0 0.00 0.00 0.00 91 1007.7
20260905051542 15 73 0.0 0.0 0.00 0.00 0.00 91 1007.7
20260905050043 16 73 0.0 0.0 0.00 0.00 0.00 91 1007.9
20260905044533 16 73 0.0 0.0 0.00 0.00 0.00 91 1007.7
20260905043033 16 73 0.0 0.0 0.00 0.00 0.00 91 1007.7
20260905041530 16 73 0.0 0.0 0.00 0.00 0.00 91 1007.8
20260905040028 16 73 0.0 0.0 0.00 0.00 0.00 91 1007.8
20260905034536 16 73 0.0 0.0 0.00 0.00 0.00 90 1007.7
20260905033028 17 73 0.0 0.0 0.00 0.00 0.00 89 1007.6
20260905031527 17 73 0.0 0.0 0.00 0.00 0.00 89 1007.6
20260905030033 17 73 0.0 0.0 0.00 0.00 0.00 89 1007.6
20260905024526 17 73 0.0 0.0 0.00 0.00 0.00 88 1007.6
20260905023032 17 73 0.0 0.0 0.00 0.00 0.00 88 1007.6
20260905021524 18 73 0.0 0.0 0.00 0.00 0.00 87 1007.6
20260905020027 18 73 0.0 0.0 0.00 0.00 0.00 87 1007.8
20260905014523 18 73 0.0 0.0 0.00 0.00 0.00 85 1008.0
20260905013025 19 73 0.0 0.0 0.00 0.00 0.00 84 1008.1
20260905011522 20 73 0.0 0.0 0.00 0.00 0.00 83 1008.1
20260905010023 20 73 0.0 0.0 0.00 0.00 0.00 82 1008.1
20260905004521 20 73 0.0 0.0 0.00 0.00 0.00 81 1008.0
20260905003021 21 73 0.0 0.0 0.00 0.00 0.00 80 1007.9
20260905001521 21 73 0.0 0.0 0.00 0.00 0.00 77 1007.8
20260905000023 22 73 0.0 0.0 0.00 0.00 0.00 76 1007.6
20260904234534 22 73 0.0 0.0 0.00 0.00 0.00 73 1007.5
20260904233020 23 73 0.0 0.0 0.00 0.00 0.00 71 1007.3
20260904231519 23 73 0.0 0.0 0.00 0.00 0.00 69 1007.2
20260904230018 24 73 0.0 0.0 0.00 0.00 0.00 68 1007.0
20260904224518 25 73 0.0 0.0 0.00 0.00 0.00 66 1007.0
20260904223017 25 73 0.0 0.0 0.00 0.00 0.00 65 1007.0
20260904221517 26 73 0.0 0.0 0.00 0.00 0.00 62 1006.9
20260904220016 26 86 0.0 0.0 0.00 0.00 0.00 60 1006.8
20260904214515 26 86 0.0 0.0 0.00 0.00 0.00 60 1006.9
20260904213015 27 82 0.0 0.0 0.00 0.00 0.00 57 1006.9
20260904211514 27 82 0.0 0.0 0.00 0.00 0.00 53 1006.8
20260904210015 28 33 0.0 0.0 0.00 0.00 0.00 51 1006.8
20260904204514 28 244 0.0 0.0 0.00 0.00 0.00 48 1006.7
20260904203013 28 194 0.0 0.0 0.00 0.00 0.00 52 1006.9
20260904201512 28 196 0.0 0.0 0.00 0.00 0.00 48 1006.9
20260904200014 28 317 0.0 0.0 0.00 0.00 0.00 50 1006.8
20260904194509 28 93 0.0 0.0 0.00 0.00 0.00 53 1006.7
20260904193010 28 109 0.0 0.0 0.00 0.00 0.00 53 1006.6
20260904191507 28 224 0.0 0.0 0.00 0.00 0.00 53 1006.7
20260904190104 28 190 0.0 0.0 0.00 0.00 0.00 53 1007.0
20260904184501 28 105 0.0 0.0 0.00 0.00 0.00 58 1007.0
20260904183057 27 276 0.0 0.0 0.00 0.00 0.00 61 1007.1
20260904181556 26 96 0.0 0.0 0.00 0.00 0.00 63 1007.1